Probability
0 0 0 0 0 0 0 0 0 0 0 0 0 0 0 0 0 0 0 0 0 0 0 0 0 0 0 0 0 0 0 0 0 0 0 0 0 0 0 0 0 0 0
0 0 0 0 0 0 0 0 0 0 0 0 0 0 0 0 0 0 0 0 0 0 0 0 0 0 0 0 0 0 0 0 0 0 0 0 0 0 0 0 0 0 0
0 0 0 0 0 0 0 0 0 0 0 0 0 0 0 0 0 0 0 0 0 0 0 0 0 0 0 0 0 0 0 0 0 0 0 0 0 0 0 0 0 0 0
0 0 0 0 0 0 0 0 0 0 0 0 0 0 0 0 0 0 0 0 0 0 0 0 0 0 0 0 0 0 0 0 0 0 0 0 0 0 0 0 0 0 0
0 0 0 0 0 0 0 0 0 0 0 0 0 0 0 0 0 0 0 0 0 0 0 0 0 0 0 0 0 0 0 0 0 0 0 0 0 0 0 0 0 0 0
0 0 0 0 0 0 0 0 0 0 0 0 0 0 0 0 0 0 0 0 0 0 0 0 0 0 0 0 0 0 0 0 0 0 0 0 0 0 0 0 0 0 0
0 0 0 0 0 0 0 0 0 0 0 0 0 0 0 0 0 0 0 0 0 0 0 0 0 0 0 0 0 0 0 0 0 0 0 0 0 0 0 0 0 0 0
0 0 0 0 0 0 0 0 0 0 0 0 0 0 0 0 0 0 0 0 0 0 0 0 0 0 0 0 0 0 0 0 0 0 0 0 0 0 0 0 0 0 0
0 0 0 0 0 0 0 0 0 0 0 0 0 0 0 0 0 0 0 0 0 0 0 0 0 0 0 0 0 0 0 0 0 0 0 0 0 0 0 0 0 0 0
0 0 0 0 0 0 0 0 0 0 0 0 0 0 0 0 0 0 0 0 0 0 0 0 0 0 0 0 0 0 0 0 0 0 0 0 0 0 0 0 0 0 0
0 0 0 0 0 0 0 0 0 0 0 0 0 0 0 0 0 0 0 0 0 0 0 0 0 0 0 0 0 0 0 0 0 0 0 0 0 0 0 0 0 0 0
0 0 0 0 0 0 0 0 0 0 0 0 0 0 0 0 0 0 0 0 0 0 0 0 0 0 0 0 0 0 0 0 0 0 0 0 0 0 0 0 0 0 0
0 0 0 0 0 0 0 0 0 0 0 0 0 0 0 0 0 0 0 0 0 0 0 0 0 0 0 0 0 0 0 0 0 0 0 0 0 0 0 0 0 0 0
0 0 0 0 0 0 0 0 0 0 0 0 0 0 0 0 0 0 0 0 0 0 0 0 0 0 0 0 0 0 0 0 0 0 0 0 0 0 0 0 0 0 0
0 0 0 0 0 0 0 0 0 0 0 0 0 0 0 0 0 0 0 0 0 0 0 0 0 0 0 0 0 0 0 0 0 0 0 0 0 0 0 0 0 0 0
0 0 0 0 0 0 0 0 0 0 0 0 0 0 0 0 0 0 0 0 0 0 0 0 0 0 0 0 0 0 0 0 0 0 0 0 0 0 0 0 0 0 0
0 0 0 0 0 0 0 0 0 0 0 0 0 0 0 0 0 0 0 0 0 0 0 0 0 0 0 0 0 0 0 0 0 0 0 0 0 0 0 0 0 0 0
0 0 0 0 0 0 0 0 0 0 0 0 0 0 0 0 0 0 0 0 0 0 0 0 0 0 0 0 0 0 0 0 0 0 0 0 0 0 0 0 0 0 0
0 0 0 0 0 0 0 0 0 0 0 0 0 0 0 0 0 0 0 0 0 0 0 0 0 0 0 0 0 0 0 0 0 0 0 0 0 0 0 0 0 0 0
0 0 0 0 0 0 0 0 0 0 0 0 0 0 0 0 0 0 0 0 0 0 0 0 0 0 0 0 0 0 0 0 0 0 0 0 0 0 0 0 0 0 0
0 0 0 0 0 0 0 0 0 0 0 0 0 0 0 0 0 0 0 0 0 0 0 0 0 0 0 0 0 0 0 0 0 0 0 0 0 0 0 0 0 0 0
0 0 0 0 0 0 0 0 0 0 0 0 0 0 0 0 0 0 0 0 0 0 0 0 0 0 0 0 0 0 0 0 0 0 0 0 0 0 0 0 0 0 0
0 0 0 0 0 0 0 0 0 0 0 0 0 0 0 0 0 0 0 0 0 0 0 0 0 0 0 0 0 0 0 0 0 0 0 0 0 0 0 0 0 0 0
0 0 0 0 0 0 0 0 0 0 0 0 0 0 0 0 0 0 0 0 0 0 0 0 0 0 0 0 0 0 0 0 0 0 0 0 0 0 0 0 0 0 0
0 0 0 0 0 0 0 0 0 0 0 0 0 0 0 0 0 0 0 0 0 0 0 0 0 0 0 0 0 0 0 0 0 0 0 0 0 0 0 0 0 0 0
0 0 0 0 0 0 0 0 0 0 0 0 0 0 0 0 0 0 0 0 0 0 0 0 0 0 0 0 0 0 0 0 0 0 0 0 0 0 0 0 0 0 0
Wind_Speed
15 14 14 13 13 13 12 12 11 10 10 10 9 9 9 9 8 7 7 6 6 5 5 5 4 5 5 5 4 4 5 5 7 7 6 6 7 10 9 10 11 11 10
13 13 13 12 12 12 12 11 10 10 9 9 9 9 8 8 7 7 7 6 6 5 5 5 5 4 5 5 5 6 5 6 8 9 8 8 9 10 10 11 11 9 10
12 13 12 12 12 12 11 10 10 9 9 8 8 8 7 7 6 6 6 6 6 6 6 6 6 6 6 6 7 6 6 6 6 8 9 8 9 8 10 10 11 9 11
11 12 12 11 11 10 10 9 9 8 8 7 7 6 6 7 7 7 6 6 6 6 6 6 6 6 7 7 6 6 7 8 8 8 8 8 8 8 8 9 9 8 9
11 11 11 10 9 9 9 8 8 7 7 6 6 6 6 6 9 10 8 7 7 7 6 6 6 5 6 7 8 9 9 8 8 8 8 9 8 8 8 8 9 9 10
10 10 9 9 9 8 8 7 7 6 6 6 6 6 6 7 7 9 11 9 8 7 7 7 6 3 3 7 8 9 10 11 11 10 9 9 11 10 9 8 9 9 8
9 8 8 8 7 7 7 6 6 5 5 5 6 6 6 8 6 7 9 10 8 7 8 8 7 6 7 8 7 9 11 13 13 11 12 11 11 10 10 11 10 10 10
8 7 7 6 7 6 6 6 5 4 4 5 5 6 5 7 6 7 12 10 7 7 7 7 7 7 7 9 12 12 11 8 6 8 9 10 10 9 10 11 11 10 11
7 6 6 5 5 5 5 5 4 4 4 4 4 5 5 6 6 7 12 9 6 7 7 6 7 7 7 9 12 12 11 9 5 8 10 12 13 13 12 9 8 8 8
6 5 5 4 4 4 4 3 3 3 4 4 4 4 5 5 5 6 11 8 8 8 7 5 0 4 8 10 11 11 11 10 10 8 8 9 10 10 12 10 7 7 7
5 4 4 3 2 3 3 3 3 4 4 4 4 4 4 5 3 4 8 8 9 9 8 6 5 5 10 11 11 10 9 11 11 10 8 6 5 3 3 4 5 5 7
3 3 3 2 2 2 3 3 3 4 3 3 3 4 3 3 4 4 5 7 9 10 8 7 7 11 14 14 10 8 11 12 8 7 6 5 4 4 4 5 6 5 5
2 2 1 1 2 3 3 3 3 3 4 4 4 5 5 5 2 1 6 9 10 8 7 9 12 13 13 10 7 10 11 7 6 5 5 5 5 5 5 5 5 5 4
1 1 1 1 1 2 3 4 4 5 5 5 5 6 5 5 6 7 8 7 6 6 7 8 10 11 9 8 8 6 5 5 6 6 6 5 5 4 4 4 5 5 5
1 1 2 2 2 2 2 4 6 7 7 7 7 6 6 6 8 10 9 9 9 8 10 7 5 6 6 5 5 5 5 5 5 5 6 6 6 5 5 4 5 5 5
1 1 1 1 2 2 1 4 5 4 3 2 4 6 4 5 8 10 10 10 11 12 9 5 6 7 7 7 8 7 7 7 7 7 7 7 7 6 6 5 5 5 6
2 3 3 2 2 2 2 2 3 4 3 2 1 2 5 7 7 9 10 12 11 11 6 5 6 6 7 8 8 8 8 8 8 7 7 8 7 7 6 6 6 6 6
2 1 2 1 2 2 2 2 3 2 2 3 4 2 2 3 5 8 11 10 4 3 5 6 7 7 8 8 8 8 8 8 8 8 8 8 8 7 7 6 6 8 7
2 2 2 2 1 2 2 2 3 3 3 3 3 3 1 3 6 7 8 5 6 6 7 7 7 8 8 8 8 8 8 8 9 9 8 9 8 8 8 7 6 5 6
1 3 3 1 1 2 2 2 3 3 3 3 4 5 4 3 3 3 4 6 6 7 7 8 8 8 8 9 9 9 9 9 9 9 9 9 8 8 8 9 8 7 6
1 4 5 2 2 2 3 3 3 3 3 3 4 6 6 5 5 6 6 6 7 7 8 8 8 8 9 9 9 10 11 10 10 10 9 9 9 8 8 8 8 7 7
1 1 1 2 2 3 3 3 3 3 3 3 3 3 1 3 5 6 6 6 7 7 7 7 8 8 9 9 10 10 10 10 10 10 10 10 8 8 8 8 8 8 9
1 1 2 2 3 3 0 2 3 3 3 3 3 3 4 5 5 6 6 7 6 6 7 7 8 9 9 9 8 9 10 11 11 11 10 9 9 8 8 8 9 9 9
1 1 2 3 2 2 3 3 3 3 3 3 4 4 5 5 5 6 6 6 6 7 7 7 8 11 13 11 9 10 11 11 12 10 12 10 9 8 8 8 9 10 9
2 2 3 3 3 3 3 3 3 3 3 3 4 4 5 5 5 6 6 6 7 7 8 8 8 9 13 14 14 13 12 12 10 11 11 8 9 9 9 9 8 8 9
3 3 3 3 3 3 3 3 3 3 3 3 4 4 5 5 5 6 6 6 7 7 7 7 10 12 14 13 14 14 12 13 13 13 11 8 8 9 10 8 10 9 9
Wind_Direction
74 74 75 76 76 77 77 76 76 75 73 70 67 64 60 56 52 50 48 42 39 33 20 18 5 346 332 326 316 308 304 303 298 298 300 302 299 294 301 299 293 288 282
80 80 78 77 77 77 77 76 76 74 73 73 70 67 62 57 51 46 40 35 28 21 11 358 348 338 329 314 316 309 309 309 296 302 304 303 301 297 295 296 292 292 295
83 83 81 80 80 80 80 80 79 79 76 73 70 67 62 57 51 43 33 26 19 11 2 351 343 335 325 332 318 314 312 305 300 296 297 301 296 298 300 292 294 296 295
85 84 81 80 81 82 82 82 82 81 80 76 72 66 59 49 38 27 22 17 7 2 357 343 340 339 336 330 314 315 312 307 298 292 294 298 297 301 300 303 307 309 309
88 87 87 87 87 86 84 82 80 77 76 70 64 58 49 48 31 9 357 2 356 351 347 341 347 347 338 324 322 325 316 310 306 303 303 304 306 314 313 317 311 309 304
87 89 90 91 90 88 87 84 77 69 59 52 46 40 38 46 37 5 341 343 343 342 341 336 324 281 321 276 274 289 298 300 308 306 303 306 309 312 317 311 305 305 305
95 95 95 94 90 87 85 78 67 58 50 39 31 27 38 63 35 0 342 323 331 342 336 330 327 347 313 325 308 276 265 250 256 283 294 300 305 312 314 307 304 304 302
98 94 93 92 88 80 73 64 52 40 32 24 17 16 21 64 40 358 332 306 327 334 330 326 324 324 353 342 319 308 305 297 272 266 286 295 301 309 305 298 297 296 293
100 93 87 84 83 76 64 52 39 23 16 8 20 9 8 62 49 0 333 319 334 333 327 329 326 327 32 341 309 305 311 314 274 247 262 272 278 276 277 289 295 296 303
95 92 86 78 65 56 48 27 24 4 356 353 18 6 7 30 67 9 338 326 340 333 326 322 320 337 342 321 309 310 314 322 321 305 273 259 259 253 241 257 287 301 311
92 88 79 67 51 32 18 2 349 341 352 349 356 1 16 23 75 48 349 332 338 328 326 333 9 2 327 313 300 294 306 310 304 302 302 303 299 292 270 270 288 297 305
95 85 69 34 5 12 353 344 339 329 321 342 354 354 15 38 27 31 328 311 309 313 321 336 347 335 318 306 297 301 300 293 289 299 309 323 330 334 335 324 316 306 293
97 75 49 18 6 352 336 333 323 329 339 354 3 6 8 9 47 236 283 284 281 298 325 326 311 304 302 293 271 281 286 287 303 316 329 336 337 334 323 320 324 325 315
65 40 344 319 340 12 331 343 355 1 0 2 7 5 4 6 11 1 342 331 322 316 326 313 293 283 282 297 300 289 292 321 330 328 332 331 328 330 329 337 341 343 349
7 335 312 330 16 347 32 30 7 38 24 356 1 360 2 2 9 344 326 333 336 334 322 312 330 344 348 350 346 345 342 343 337 336 337 337 341 347 352 353 351 349 358
304 325 331 360 21 347 60 117 83 48 78 42 5 344 358 10 334 324 319 311 302 300 304 332 352 355 352 351 352 355 357 356 350 346 345 345 347 351 1 5 1 360 3
342 354 340 1 16 13 29 44 113 144 173 173 163 350 341 340 327 323 321 314 294 290 309 356 359 355 353 353 355 355 354 353 349 349 352 352 353 357 3 9 6 9 13
319 95 311 10 17 30 43 30 26 36 110 141 162 168 329 320 312 315 315 311 321 332 0 3 -0 358 357 355 354 354 351 352 354 354 359 358 357 359 5 11 14 10 10
331 27 27 25 37 62 49 36 39 37 27 31 56 120 216 264 252 270 300 342 4 7 4 1 1 359 356 351 353 354 352 352 356 352 358 358 357 358 5 9 16 15 357
105 58 328 334 93 85 57 40 37 40 38 33 36 29 9 350 6 12 9 10 5 5 1 357 357 358 356 352 352 355 355 356 356 356 356 355 356 357 1 6 10 12 13
110 135 194 233 72 56 46 43 39 36 41 43 53 48 344 343 12 15 14 11 8 3 359 350 347 357 360 354 357 356 355 356 0 357 354 353 354 357 358 4 10 12 11
316 131 143 72 72 55 39 49 50 53 54 47 54 96 273 328 15 14 14 11 8 3 0 351 348 359 1 355 353 349 353 358 359 355 348 347 351 359 5 7 11 15 15
232 125 119 102 98 117 196 65 59 58 57 47 38 29 24 19 16 16 13 10 7 5 3 359 356 3 2 355 349 349 358 356 345 338 337 343 353 2 8 12 15 18 25
119 141 126 115 106 100 81 78 72 61 54 44 31 27 25 21 18 18 13 12 8 9 8 6 5 5 4 4 358 5 11 348 331 326 334 341 356 5 10 13 17 17 18
116 126 121 114 106 98 91 83 75 64 54 46 35 27 23 22 23 23 19 14 11 15 13 14 8 10 6 10 11 6 353 333 327 326 324 341 5 8 5 13 16 20 20
116 117 112 108 100 92 91 88 78 62 52 41 36 30 22 23 27 24 22 16 9 16 14 13 10 17 14 10 9 359 345 339 336 327 318 343 12 16 360 4 12 17 20